Home > Time Zones > World Clock > Weather > U.S.A. > Reno > Past weeks

Flag for U.S.A. Weather past 2 weeks in Reno, Nevada, U.S.A.

Now
98 °F

Partly sunny.


Feels Like: 94 °F
Forecast: 68 / 96 °F
Wind: 10 mph from North

Location: Reno Tahoe International Airport

Current Time: Jun 29, 2015 at 5:08:21 PM

Latest Report: Jun 29, 2015 at 3:55 PM


Visibility: 10 mi

Pressure: 29.86 "Hg

Humidity: 14%

Dew point: 42 °F

Location of RenoLocation

Historic Weather in Reno — Graph

°F

Reno temperature yesterday

Maximum temperature yesterday: 89 °F (at 2:55 PM)
Minimum temperature yesterday: 68 °F (at 5:55 AM)
Average temperature yesterday: 79 °F

Past Weeks' High & Low Weather Summary

 TemperatureHumidityPressure
High100 °F (Jun 27, 2:55 PM)49% (Jun 28, 5:55 AM)30.01 "Hg (Jun 28, 5:55 AM)
Low52 °F (Jun 22, 5:55 AM)5% (Jun 19, 1:55 PM)29.68 "Hg (Jun 14, 3:55 PM)
Average79 °F20%29.89 "Hg
* Reported Jun 14 3:55 PM — Jun 29 3:55 PM, Reno, Weather by CustomWeather, © 2015

Note: Actual official high and low records may vary slightly from our data, if they occured in-between our weather recording intervals... More about our weather records

Advertising

Reno weather history for previous 24 hours

 ConditionsComfort  
Time TempWeatherWind HumidityBarometerVisibility
3:55 PM
Mon, Jun 29
98 °FPartly sunny.10 mph14%29.86 "Hg10 mi
2:55 PM94 °FBroken clouds.10 mph19%29.88 "Hg10 mi
1:55 PM96 °FBroken clouds.15 mph19%29.88 "Hg10 mi
12:55 PM93 °FBroken clouds.7 mph21%29.91 "Hg10 mi
11:55 AM92 °FBroken clouds.5 mph22%29.93 "Hg10 mi
10:55 AM87 °FScattered clouds.No wind26%29.96 "Hg10 mi
9:55 AM84 °FBroken clouds.3 mph31%29.97 "Hg10 mi
8:55 AM80 °FBroken clouds.No wind35%29.98 "Hg10 mi
7:55 AM76 °FBroken clouds.No wind42%29.98 "Hg10 mi
6:55 AM73 °FBroken clouds.5 mph46%29.98 "Hg10 mi
5:55 AM72 °FPartly cloudy.3 mph46%29.97 "Hg10 mi
4:55 AM72 °FPassing clouds.5 mph46%29.96 "Hg10 mi
3:55 AM72 °FMostly cloudy.No wind46%29.94 "Hg10 mi
2:55 AM75 °FMostly cloudy.3 mph42%29.94 "Hg10 mi
1:55 AM75 °FPartly cloudy.3 mph42%29.94 "Hg10 mi
12:55 AM77 °FPassing clouds.3 mph39%29.93 "Hg10 mi
11:55 PM
Sun, Jun 28
78 °FPassing clouds.3 mph36%29.93 "Hg10 mi
10:55 PM79 °FMostly cloudy.8 mph35%29.91 "Hg10 mi
9:55 PM80 °FMostly cloudy.10 mph34%29.93 "Hg10 mi
8:55 PM82 °FCloudy.8 mph32%29.92 "Hg10 mi
7:55 PM84 °FMostly cloudy.9 mph30%29.90 "Hg10 mi
6:55 PM84 °FCloudy.10 mph30%29.91 "Hg10 mi
Weather by CustomWeather, © 2015

See weather overviewHow to use our weather pages